| Date | Temp | Humidity | Rainfall | Dew Point | Wind Direction | Wind Speed | Wind Pressure | Condition | Visibility |
|---|---|---|---|---|---|---|---|---|---|
| 2025-04-24 21:59:09 | 27 | 86 | 25 | 190 | 9.5 | 1012 | Partly Cloudy (Night) | 10KM | |
| 2025-04-24 20:57:51 | 28 | 81 | 25 | 010 | 3.8 | 1011 | Partly Cloudy (Night) | 10 KM | |
| 2025-04-24 19:57:37 | 29 | 78 | 24 | 230 | 5.7 | 1010 | Lightning | 10 KM | |
| 2025-04-24 18:59:52 | 29 | 72 | 24 | 290 | 5.7 | 1010 | Partly Cloudy (Night) | 10 KM | |
| 2025-04-24 17:59:10 | 30 | 70 | 24 | 300 | 9.5 | 1009 | Partly Cloudy (Day) | 15 km | |
| 2025-04-24 17:01:31 | 30 | 68 | 24 | 320 | 11.4 | 1009 | Partly Cloudy (Day) | 20 km | |
| 2025-04-24 16:00:38 | 31 | 63 | 24 | 320 | 11.4 | 1009 | Partly Cloudy (Day) | 20 km | |
| 2025-04-24 14:59:34 | 32 | 63 | 24 | 320 | 13.3 | 1009 | Cloudy | 20 km | |
| 2025-04-24 14:00:56 | 32 | 68 | 24 | 330 | 11.4 | 1010 | Distant showers | 10 km | |
| 2025-04-24 12:58:41 | 32 | 63 | 0 | 24 | 340 | 11.4 | 1011 | Cloudy | 20 KM |
| 2025-04-24 12:01:25 | 31 | 63 | 0 | 23 | 030 | 7.6 | 1011 | Cloudy | 20 KM |
| 2025-04-24 11:01:54 | 31 | 64 | 0 | 24 | 120 | 5.7 | 1012 | Cloudy | 20 KM |
| 2025-04-24 09:58:28 | 29 | 79 | 25 | 130 | 5.7 | 1013 | Cloudy | 15KM | |
| 2025-04-24 08:59:44 | 28 | 83 | 25 | 140 | 3.8 | 1013 | Shower Day | 10KM | |
| 2025-04-24 07:59:55 | 27 | 88 | 0.00 | 25 | 210 | 3.8 | 1012 | Shower Day | 10 km |
| 2025-04-24 06:58:26 | 25 | 94 | 0.0 | 25 | 120 | 1.9 | 1011 | Partly Cloudy (Day) | 10 km |
| 2025-04-24 05:58:51 | 25 | 95 | 0.00 | 25 | 180 | 3.8 | 1010 | Showers | 10 km |
| 2025-04-24 04:59:41 | 26 | 94 | 0.00 | 25 | 170 | 1.9 | 1010 | Partly Cloudy (Night) | 10 km |
| 2025-04-24 03:58:33 | 26 | 94 | 0.00 | 25 | 230 | 3.8 | 1010 | Partly Cloudy (Night) | 10 km |
| 2025-04-24 02:59:44 | 26 | 94 | 25 | 230 | 1.9 | 1010 | Partly Cloudy (Night) | 10KM | |
| 2025-04-24 02:01:14 | 26 | 93 | 25 | 180 | 1.9 | 1010 | Partly Cloudy (Night) | 10KM | |
| 2025-04-24 01:01:00 | 26 | 92 | 25 | 140 | 3.8 | 1011 | Partly Cloudy (Night) | 10KM | |
| 2025-04-24 00:04:50 | 26 | 89 | 25 | 240 | 1.9 | 1012 | Partly Cloudy (Night) | 10KM | |
| 2025-04-23 23:00:07 | 27 | 88 | 25 | 250 | 3.8 | 1012 | Partly Cloudy (Night) | 10KM | |
| 2025-04-23 22:04:04 | 27 | 88 | 0.00 | 24 | 220 | 1.9 | 101 | Partly Cloudy (Night) | 10KM |